#timestamp,LO_Frequency,Hit,StdDev 
1543600815.2,286047001.9,N
1543600835.1,286047002.6,N
1543600836.0,286047002.6,N
1543600855.8,286047000.5,N
1543600875.6,286047000.7,N
1543600895.5,286047000.6,N
1543600915.3,286046999.3,N
1543600935.2,286046999.3,N
1543600955.9,286046997.1,N
1543600975.7,286046997.5,N
1543600995.6,286046997.2,N
1543601015.4,286046996.6,N
1543601035.2,286046999.4,N
1543601055.1,286046997.7,N
1543601056.0,286046997.7,N
1543601075.8,286046999.1,N
1543601095.7,286046999.1,N
1543601115.5,286046997.2,N
1543601135.3,286046997.8,N
1543601155.2,286046997.1,N
1543601175.0,286046995.3,N
1543601175.9,286046995.3,N
1543601195.8,286046997.6,N
1543601215.6,286046998.0,N
1543601235.4,286046998.0,N
1543601255.3,286046993.7,Y
1543601275.1,286046995.3,P
1543601295.8,286046997.5,N
1543601315.7,286046997.3,N
1543601335.5,286046995.9,Y
1543601355.4,286046997.0,P
1543601375.2,286046997.2,P
1543601395.0,286046996.5,P
1543601395.9,286046996.5,Y
1543601415.8,286047002.3,P
1543601435.6,286047002.4,N
1543601455.5,286047000.5,N
1543601475.3,286047000.4,N
1543601495.1,286046998.1,N
1543601515.9,286046999.3,N
1543601535.7,286046998.4,N
1543601555.5,286046999.4,N
1543601575.4,286046998.9,N
1543601595.2,286047000.8,N
1543601615.1,286047002.8,N
1543601616.0,286047002.8,N
1543601635.8,286047001.0,N
1543601655.6,286046998.5,N
1543601675.5,286046998.5,N
1543601695.3,286047001.1,N
1543601715.2,286046998.4,N
1543601735.9,286046997.0,N
1543601755.7,286046996.6,N
1543601775.6,286046996.8,N
1543601795.4,286046997.0,N
1543601815.2,286046995.5,N
1543601835.1,286046995.4,N
1543601836.0,286046995.4,N
1543601855.8,286046995.7,N
1543601875.7,286046995.7,N
1543601895.5,286046997.4,N
1543601915.3,286046995.0,N
1543601935.2,286046995.1,N
1543601955.0,286046997.3,N
1543601955.9,286046997.3,N
1543601975.8,286046997.9,N
1543601995.6,286046998.0,N
1543602015.4,286046995.2,N
1543602035.3,286046995.2,N
1543602055.1,286046993.3,Y
1543602075.8,286046997.7,P
1543602095.7,286046996.2,P
1543602115.5,286046995.6,P
1543602135.4,286046995.9,Y
1543602155.2,286047001.2,P
1543602175.0,286046998.9,N
1543602175.9,286046998.9,N
1543602195.8,286046999.1,N
1543602215.6,286046996.7,N
1543602235.4,286046997.9,N
1543602255.3,286046997.5,N
1543602275.1,286046994.9,Y
1543602295.9,286046997.3,P
1543602315.7,286046997.0,P
1543602335.5,286046999.6,N
1543602355.4,286046996.8,Y
1543602375.2,286046998.7,P
1543602395.1,286047001.1,P
1543602396.0,286047001.1,N
1543602415.8,286047002.8,N
1543602435.6,286047000.4,N
1543602455.5,286046998.8,N
1543602475.3,286046998.1,N
1543602495.1,286046998.6,N
1543602515.9,286046998.6,N
1543602535.7,286046999.1,N
1543602555.6,286046999.3,N
1543602575.4,286046998.4,N
1543602595.2,286046998.2,N
1543602615.1,286046999.2,N
1543602616.0,286046999.2,N
1543602635.8,286046997.8,N
1543602655.7,286046995.3,Y
1543602675.5,286046999.2,P
1543602695.3,286046996.9,P
1543602715.2,286046997.2,N
1543602735.0,286046997.4,N
1543602735.9,286046997.4,N
1543602755.8,286046997.0,Y
1543602775.6,286046996.5,P
1543602795.4,286046998.6,N
1543602815.3,286046997.0,P
1543602835.1,286046998.8,N
1543602855.8,286046999.6,N
1543602875.7,286046997.0,N
1543602895.5,286046999.2,N
1543602915.4,286046997.4,N
1543602935.2,286046996.9,Y
1543602955.0,286047000.6,P
1543602955.9,286047000.6,N
1543602975.8,286047000.7,N
1543602995.6,286047000.9,N
1543603015.4,286047001.1,N
1543603035.3,286046998.7,N
1543603055.1,286047000.7,N
1543603075.9,286046998.8,N
1543603095.7,286046999.4,N
1543603115.5,286046998.4,N
1543603135.4,286046999.0,N
1543603155.2,286047001.1,N
1543603175.0,286046998.9,N
1543603176.0,286046998.9,N
1543603195.8,286046998.2,N
1543603215.6,286047000.7,N
1543603235.5,286047000.0,N
1543603255.3,286046999.4,N
1543603275.1,286046999.0,N
1543603295.9,286047000.9,N
1543603315.7,286046998.7,N
1543603335.6,286046998.8,N
1543603355.4,286046998.9,N
1543603375.2,286046997.3,N
1543603395.1,286046994.9,Y
1543603396.0,286046994.9,P
1543603415.8,286046997.9,N
1543603435.6,286046995.1,N
1543603455.5,286046996.2,N
1543603475.3,286046995.2,N
1543603495.2,286046996.4,N
1543603515.9,286046995.6,N
1543603535.7,286046997.5,N
1543603555.6,286046996.6,N
1543603575.4,286046999.6,N
1543603595.2,286046999.2,N
1543603615.1,286046999.4,N
1543603616.0,286046999.4,N
1543603635.8,286046996.7,N
1543603655.7,286046999.2,N
1543603675.5,286046999.5,N
1543603695.3,286046996.9,N
1543603715.2,286046997.4,N
1543603735.0,286046996.9,N
1543603735.9,286046996.9,N
1543603755.8,286046997.4,N
1543603775.6,286046997.7,N
1543603795.4,286046995.5,Y
1543603815.3,286046998.3,P
1543603835.1,286046998.7,P
1543603855.8,286046999.6,N
1543603875.7,286046996.9,Y
1543603895.5,286047000.8,P
1543603915.4,286046997.0,N
1543603935.2,286046999.6,N
1543603955.0,286046999.3,N
1543603955.9,286046999.3,N
1543603975.8,286046999.6,N
1543603995.6,286046996.6,Y
1543604015.5,286046996.6,P
1543604035.3,286046998.8,N
1543604055.1,286046996.5,P
1543604075.9,286046998.9,N
1543604095.7,286046997.0,N
1543604115.5,286046997.1,N
1543604135.4,286046997.2,N
1543604155.2,286046997.3,N
1543604175.1,286046997.4,N
1543604176.0,286046997.4,N
1543604195.8,286046997.8,N
1543604215.6,286046995.7,Y
1543604235.5,286046999.1,P
1543604255.3,286046999.3,N
1543604275.2,286046998.1,N
1543604295.9,286047001.0,N
1543604315.7,286047001.2,N
1543604335.6,286047000.6,N
1543604355.4,286047000.9,N
1543604375.2,286047001.0,N
1543604395.1,286047002.5,N
1543604396.0,286047002.5,N
